Flag Weather past 2 weeks in Rotenburg (Wümme), Lower Saxony, Germany

Now
36 °F

Overcast.


Feels Like: 30 °F
Forecast: 29 / 34 °F
Wind: 8 mph from East

Location: Bremen

Current Time: Nov 28, 2014 at 6:30:31 PM

Latest Report: Nov 28, 2014 at 6:00 PM


Visibility: 5 mi

Pressure: 30.04 "Hg

Humidity: 76%

Dew point: 29 °F

Location of Rotenburg (Wümme)Location

Historic Weather in Rotenburg (Wümme) — Graph

°F

Rotenburg (Wümme) temperature yesterday

Maximum temperature yesterday: 40 °F (at 3:00 PM)
Minimum temperature yesterday: 36 °F (at 3:00 AM)
Average temperature yesterday: 38 °F

Past Weeks' High & Low Weather Summary

 TemperatureHumidityPressure
High54 °F (Nov 14, 3:00 PM)100% (Nov 20, 11:00 PM)30.39 "Hg (Nov 20, 11:00 PM)
Low31 °F (Nov 21, 7:00 AM)69% (Nov 24, 2:00 PM)29.53 "Hg (Nov 16, 3:00 PM)
Average44 °F88%30.01 "Hg
* Reported Nov 13 5:00 PM — Nov 28 5:00 PM, Rotenburg (Wümme), Weather by CustomWeather, © 2014

Note: Actual official high and low records may vary slightly from our data, if they occured in-between our weather recording intervals... More about our weather records

Advertising

Rotenburg (Wümme) weather history for previous 24 hours

 ConditionsComfort  
Time TempWeatherWind HumidityBarometerVisibility
5:00 PM
Nov 28
36 °FOvercast.9 mph76%30.03 "Hg5 mi
3:00 PM37 °FOvercast.9 mph75%30.01 "Hg5 mi
2:00 PM37 °FOvercast.9 mph76%30.01 "Hg5 mi
1:00 PM37 °FOvercast.8 mph75%30.01 "Hg5 mi
12:00 PM37 °FOvercast.9 mph76%30.00 "Hg5 mi
11:00 AM37 °FOvercast.9 mph77%30.00 "Hg5 mi
10:00 AM38 °FOvercast.9 mph77%29.98 "Hg5 mi
9:00 AM37 °FPartly sunny.9 mph79%29.97 "Hg6 mi
8:00 AM36 °FPassing clouds.9 mph80%29.95 "Hg7 mi
7:00 AM37 °FPassing clouds.9 mph80%29.94 "Hg7 mi
6:00 AM37 °FPassing clouds.9 mph80%29.93 "Hg7 mi
5:00 AM37 °FPassing clouds.9 mph80%29.92 "Hg7 mi
3:00 AM38 °FOvercast.8 mph80%29.91 "Hg7 mi
2:00 AM37 °FOvercast.8 mph80%29.90 "Hg7 mi
1:00 AM37 °FPassing clouds.7 mph79%29.90 "Hg7 mi
12:00 AM37 °FOvercast.8 mph79%29.90 "Hg8 mi
11:00 PM
Nov 27
37 °FOvercast.7 mph79%29.90 "Hg8 mi
10:00 PM37 °FOvercast.6 mph82%29.90 "Hg7 mi
9:00 PM37 °FOvercast.6 mph82%29.90 "Hg7 mi
8:00 PM37 °FOvercast.7 mph82%29.88 "Hg7 mi
7:00 PM37 °FPassing clouds.7 mph82%29.88 "Hg9 mi
6:00 PM38 °FOvercast.8 mph80%29.88 "Hg9 mi
Weather by CustomWeather, © 2014

See weather overviewHow to use our weather pages